Location: Central Falls
(41.8900°N, 71.3929°W)
Time: 11:51:58
(UTC+00:00)

Altair - Pass Details

Date: 07 December 2023
Orbit: 1501 x 1682 km, 47.2° (Epoch: 20 February)

Event Time Altitude Azimuth Distance (km) Brightness Sun altitude
Rises 14:12:50 0° 263° (W) 4,820 9.8 17.4°
Reaches altitude 10° 14:16:01 10° 266° (W) 3,811 9.3 17.7°
Maximum altitude 14:25:39 68° 349° (NNW) 1,656 7.8 18.7°
Drops below altitude 10° 14:34:55 10° 72° (ENE) 3,684 9.7 19.6°
Sets 14:37:58 0° 75° (ENE) 4,653 10.2 19.9°
